W4GHW Weather Reports


Display with metric or nautical units.
time (UTC)temp
F
wind
direction
speed
MPH
gust
MPH
rain 1hr
in
rain 24hr
in
rain mn
in
humidity
%
barometer
mb
20260903000534 88 59 0.0 1.0 0.00 0.00 0.00 63 1016.3
20260903000318 88 59 0.0 2.0 0.00 0.00 0.00 63 1017.3
20260903000042 88 59 0.0 2.0 0.00 0.00 0.00 62 1016.3
20260902235540 88 59 0.0 2.0 0.00 0.00 0.00 62 1016.4
20260902235043 89 65 0.0 2.0 0.00 0.00 0.00 60 1016.4
20260902234823 90 66 0.0 2.0 0.00 0.00 0.00 61 1017.3
20260902234550 89 66 0.0 2.0 0.00 0.00 0.00 60 1016.4
20260902234054 89 77 0.0 2.0 0.00 0.00 0.00 59 1016.4
20260902233558 90 64 0.0 3.0 0.00 0.00 0.00 58 1016.4
20260902233503 90 64 0.0 4.0 0.00 0.00 0.00 58 1016.4
20260902233330 90 64 0.0 4.0 0.00 0.00 0.00 58 1017.4
20260902233103 90 53 0.0 4.0 0.00 0.00 0.00 58 1016.3
20260902232555 90 91 1.0 3.0 0.00 0.00 0.00 57 1016.4
20260902232050 91 90 0.0 4.0 0.00 0.00 0.00 56 1016.4
20260902231832 91 31 0.0 4.0 0.00 0.00 0.00 57 1017.3
20260902231553 91 92 0.0 4.0 0.00 0.00 0.00 56 1016.3
20260902231044 91 84 0.0 4.0 0.00 0.00 0.00 56 1016.3
20260902230552 91 67 0.0 4.0 0.00 0.00 0.00 56 1016.3
20260902230317 92 107 1.0 5.0 0.00 0.00 0.00 55 1017.3
20260902230049 91 85 0.0 5.0 0.00 0.00 0.00 55 1016.2
20260902225542 92 37 1.0 5.0 0.00 0.00 0.00 55 1016.3
20260902225043 92 84 0.0 4.0 0.00 0.00 0.00 56 1016.4
20260902224819 92 78 0.0 8.0 0.00 0.00 0.00 55 1017.4
20260902224541 92 72 2.0 8.0 0.00 0.00 0.00 55 1016.5
20260902224034 92 86 2.0 5.0 0.00 0.00 0.00 54 1016.4
20260902223530 92 107 2.0 6.0 0.00 0.00 0.00 54 1016.4
20260902223344 92 73 1.0 6.0 0.00 0.00 0.00 56 1017.4
20260902223007 91 34 2.0 6.0 0.00 0.00 0.00 55 1016.4
20260902222505 91 79 2.0 4.0 0.00 0.00 0.00 56 1016.5
20260902222056 91 38 2.0 4.0 0.00 0.00 0.00 55 1016.6
20260902222000 91 122 2.0 4.0 0.00 0.00 0.00 54 1016.6
20260902221848 92 112 2.0 4.0 0.00 0.00 0.00 56 1017.6
20260902221547 91 30 1.0 4.0 0.00 0.00 0.00 56 1016.6
20260902221033 92 43 2.0 5.0 0.00 0.00 0.00 55 1016.6
20260902220522 92 37 1.0 6.0 0.00 0.00 0.00 55 1016.6
20260902220321 93 107 1.0 6.0 0.00 0.00 0.00 55 1017.6
20260902220018 92 36 3.0 6.0 0.00 0.00 0.00 54 1016.5
20260902215517 93 138 2.0 6.0 0.00 0.00 0.00 54 1016.4
20260902215012 93 43 2.0 8.0 0.00 0.00 0.00 53 1016.4
20260902214830 93 108 2.0 8.0 0.00 0.00 0.00 53 1017.4
20260902214510 93 66 4.0 8.0 0.00 0.00 0.00 53 1016.3
20260902214006 93 97 1.0 6.0 0.00 0.00 0.00 53 1016.5
20260902213504 93 360 2.0 5.0 0.00 0.00 0.00 52 1016.4
20260902213319 94 19 3.0 9.0 0.00 0.00 0.00 52 1017.5
20260902213059 93 99 2.0 9.0 0.00 0.00 0.00 52 1016.6
20260902212554 93 20 2.0 9.0 0.00 0.00 0.00 54 1016.5
20260902212050 93 60 1.0 10.0 0.00 0.00 0.00 53 1016.6
20260902211824 93 81 2.0 10.0 0.00 0.00 0.00 54 1017.6
20260902211555 93 40 4.0 10.0 0.00 0.00 0.00 52 1016.6
20260902211040 93 85 4.0 10.0 0.00 0.00 0.00 53 1016.7
20260902210540 93 121 2.0 9.0 0.00 0.00 0.00 52 1016.7
20260902210316 94 14 3.0 9.0 0.00 0.00 0.00 51 1017.6
20260902210036 93 79 3.0 9.0 0.00 0.00 0.00 51 1016.7
20260902205529 93 51 2.0 8.0 0.00 0.00 0.00 52 1016.7
20260902205032 93 74 3.0 8.0 0.00 0.00 0.00 52 1016.7
20260902204825 93 82 3.0 8.0 0.00 0.00 0.00 53 1017.8
20260902204524 93 57 2.0 8.0 0.00 0.00 0.00 52 1016.8
20260902204022 93 38 3.0 6.0 0.00 0.00 0.00 53 1016.8
20260902203517 93 51 1.0 8.0 0.00 0.00 0.00 52 1016.7
20260902203319 93 13 2.0 8.0 0.00 0.00 0.00 52 1017.7
20260902203013 93 96 3.0 8.0 0.00 0.00 0.00 54 1016.9
20260902202510 93 9 2.0 9.0 0.00 0.00 0.00 51 1016.9
20260902202006 93 105 3.0 9.0 0.00 0.00 0.00 53 1016.9
20260902201831 93 84 3.0 9.0 0.00 0.00 0.00 53 1018.0
20260902201600 93 109 4.0 9.0 0.00 0.00 0.00 51 1017.0
20260902201505 93 117 4.0 8.0 0.00 0.00 0.00 52 1017.0
20260902201057 93 122 2.0 9.0 0.00 0.00 0.00 54 1017.0
20260902200556 93 165 3.0 9.0 0.00 0.00 0.00 53 1017.1
20260902200325 93 53 4.0 9.0 0.00 0.00 0.00 53 1018.1
20260902200052 93 40 1.0 9.0 0.00 0.00 0.00 55 1017.1
20260902195555 93 61 1.0 9.0 0.00 0.00 0.00 54 1017.2
20260902195055 93 111 2.0 8.0 0.00 0.00 0.00 53 1017.2
20260902194832 93 71 3.0 8.0 0.00 0.00 0.00 52 1018.2
20260902193540 93 107 1.0 8.0 0.00 0.00 0.00 53 1017.4
20260902193331 93 116 3.0 8.0 0.00 0.00 0.00 51 1018.4
20260902193044 93 43 3.0 8.0 0.00 0.00 0.00 53 1017.5
20260902192536 92 87 1.0 7.0 0.00 0.00 0.00 57 1017.6
20260902192035 92 132 2.0 6.0 0.00 0.00 0.00 55 1017.7
20260902191847 92 37 3.0 6.0 0.00 0.00 0.00 54 1018.7
20260902191515 92 115 1.0 5.0 0.00 0.00 0.00 55 1017.8
20260902191006 91 17 2.0 7.0 0.00 0.00 0.00 54 1017.8
20260902190603 92 150 3.0 8.0 0.00 0.00 0.00 52 1017.8
20260902190502 92 53 2.0 8.0 0.00 0.00 0.00 53 1018.0
20260902190318 93 20 2.0 10.0 0.00 0.00 0.00 54 1018.9
20260902190056 93 51 3.0 10.0 0.00 0.00 0.00 53 1017.9
20260902185552 93 130 4.0 10.0 0.00 0.00 0.00 53 1018.0
20260902185048 93 138 3.0 9.0 0.00 0.00 0.00 51 1018.1
20260902184828 93 113 4.0 9.0 0.00 0.00 0.00 52 1019.1
20260902184548 92 132 4.0 9.0 0.00 0.00 0.00 53 1018.0
20260902184044 92 49 2.0 9.0 0.00 0.00 0.00 55 1018.0
20260902183542 92 70 3.0 9.0 0.00 0.00 0.00 55 1018.1
20260902183322 93 123 3.0 6.0 0.00 0.00 0.00 54 1019.1
20260902183051 92 112 1.0 6.0 0.00 0.00 0.00 57 1018.2
20260902182531 92 79 1.0 4.0 0.00 0.00 0.00 54 1018.3
20260902182028 93 42 1.0 8.0 0.00 0.00 0.00 54 1018.2
20260902181832 93 340 2.0 8.0 0.00 0.00 0.00 56 1019.1
20260902181526 92 128 1.0 8.0 0.00 0.00 0.00 52 1018.2
20260902181030 92 40 2.0 6.0 0.00 0.00 0.00 54 1018.2
20260902180520 92 175 2.0 10.0 0.00 0.00 0.00 54 1018.2
20260902180320 92 15 2.0 10.0 0.00 0.00 0.00 54 1019.2
20260902180016 92 48 2.0 7.0 0.00 0.00 0.00 55 1018.3
20260902175512 92 136 2.0 7.0 0.00 0.00 0.00 53 1018.4
20260902175008 92 34 2.0 6.0 0.00 0.00 0.00 55 1018.4
20260902174831 92 49 3.0 6.0 0.00 0.00 0.00 55 1019.3
20260902174503 92 117 2.0 7.0 0.00 0.00 0.00 57 1018.4
20260902174057 92 23 2.0 7.0 0.00 0.00 0.00 57 1018.4
20260902173559 91 119 2.0 4.0 0.00 0.00 0.00 56 1018.5
20260902173326 91 112 1.0 5.0 0.00 0.00 0.00 60 1019.5
20260902173056 91 109 2.0 5.0 0.00 0.00 0.00 59 1018.6
20260902172549 90 101 2.0 4.0 0.00 0.00 0.00 59 1018.6
20260902172042 91 331 2.0 8.0 0.00 0.00 0.00 60 1018.8
20260902171837 92 71 2.0 8.0 0.00 0.00 0.00 59 1019.8
20260902171519 91 117 3.0 8.0 0.00 0.00 0.00 58 1019.0
20260902171015 92 125 4.0 8.0 0.00 0.00 0.00 58 1019.1
20260902170505 91 161 2.0 7.0 0.00 0.00 0.00 62 1019.2
20260902170322 92 112 4.0 8.0 0.00 0.00 0.00 60 1020.2
20260902170059 91 140 0.0 8.0 0.00 0.00 0.00 60 1019.4
20260902170002 91 37 1.0 8.0 0.00 0.00 0.00 59 1019.3
20260902165552 91 71 3.0 8.0 0.00 0.00 0.00 58 1019.4
20260902165043 91 118 4.0 8.0 0.00 0.00 0.00 60 1019.4
20260902164847 91 146 5.0 11.0 0.00 0.00 0.00 62 1020.4
20260902164521 90 104 2.0 11.0 0.00 0.00 0.00 62 1019.6
20260902164017 89 159 1.0 9.0 0.00 0.00 0.00 61 1019.5
20260902163514 89 21 2.0 9.0 0.00 0.00 0.00 63 1019.6
20260902163318 89 14 4.0 9.0 0.00 0.00 0.00 62 1020.7
20260902163009 88 341 0.0 6.0 0.00 0.00 0.00 65 1019.6
20260902162507 89 65 2.0 6.0 0.00 0.00 0.00 63 1019.6
20260902162005 88 273 1.0 6.0 0.00 0.00 0.00 65 1019.6
20260902161830 89 40 3.0 8.0 0.00 0.00 0.00 64 1020.6
20260902161503 88 315 1.0 8.0 0.00 0.00 0.00 63 1019.6
20260902161059 88 317 3.0 8.0 0.00 0.00 0.00 63 1019.8
20260902161002 88 355 2.0 6.0 0.00 0.00 0.00 63 1019.8
20260902160557 89 347 2.0 6.0 0.00 0.00 0.00 61 1019.8
20260902160322 89 336 2.0 5.0 0.00 0.00 0.00 61 1020.8
20260902160058 89 49 2.0 5.0 0.00 0.00 0.00 61 1019.9
20260902155551 89 66 2.0 6.0 0.00 0.00 0.00 62 1019.8
20260902155047 89 30 3.0 6.0 0.00 0.00 0.00 63 1019.8
20260902154813 89 61 4.0 5.0 0.00 0.00 0.00 63 1020.9
20260902154553 89 5 2.0 5.0 0.00 0.00 0.00 63 1019.8
20260902154045 89 222 1.0 5.0 0.00 0.00 0.00 63 1019.9
20260902153540 89 103 1.0 6.0 0.00 0.00 0.00 64 1020.0
20260902153324 89 30 2.0 6.0 0.00 0.00 0.00 66 1021.0
20260902153032 88 128 2.0 6.0 0.00 0.00 0.00 65 1020.1
20260902152527 88 113 0.0 4.0 0.00 0.00 0.00 66 1020.0
20260902152029 87 46 2.0 4.0 0.00 0.00 0.00 68 1020.0
20260902151826 87 71 2.0 4.0 0.00 0.00 0.00 66 1020.9
20260902151532 87 355 2.0 4.0 0.00 0.00 0.00 68 1020.0
20260902151021 86 225 2.0 4.0 0.00 0.00 0.00 66 1019.9
20260902150521 86 323 1.0 5.0 0.00 0.00 0.00 70 1019.8
20260902150329 86 329 2.0 5.0 0.00 0.00 0.00 69 1020.9
20260902150018 86 323 2.0 7.0 0.00 0.00 0.00 70 1019.8
20260902145512 85 239 2.0 7.0 0.00 0.00 0.00 71 1019.8
20260902145011 85 265 1.0 5.0 0.00 0.00 0.00 72 1019.8
20260902144826 85 282 2.0 5.0 0.00 0.00 0.00 74 1020.8
20260902144606 84 221 0.0 6.0 0.00 0.00 0.00 76 1020.0
20260902144501 84 12 0.0 6.0 0.00 0.00 0.00 76 1019.9
20260902144057 83 340 1.0 6.0 0.00 0.00 0.00 75 1019.8
20260902143555 83 317 1.0 4.0 0.00 0.00 0.00 77 1019.8
20260902143327 84 317 1.0 4.0 0.00 0.00 0.00 78 1020.7
20260902143049 83 287 1.0 6.0 0.00 0.00 0.00 78 1019.7
20260902142545 82 281 1.0 6.0 0.00 0.00 0.00 79 1019.8
20260902142040 82 298 3.0 6.0 0.00 0.00 0.00 79 1019.8
20260902141846 82 276 3.0 5.0 0.00 0.00 0.00 80 1020.7
20260902141515 82 344 2.0 5.0 0.00 0.00 0.00 82 1019.8
20260902141013 81 294 0.0 4.0 0.00 0.00 0.00 84 1019.7
20260902140512 80 22 1.0 4.0 0.00 0.00 0.00 83 1019.7
20260902140327 81 285 2.0 4.0 0.00 0.00 0.00 83 1020.7
20260902140011 80 321 1.0 4.0 0.00 0.00 0.00 84 1019.8
20260902135505 80 318 1.0 4.0 0.00 0.00 0.00 84 1019.8
20260902135003 80 247 1.0 4.0 0.00 0.00 0.00 84 1019.8
20260902134829 80 321 2.0 4.0 0.00 0.00 0.00 84 1020.7
20260902134600 80 318 2.0 4.0 0.00 0.00 0.00 84 1019.6
20260902134501 80 298 2.0 4.0 0.00 0.00 0.00 84 1019.6
20260902134058 80 348 0.0 4.0 0.00 0.00 0.00 85 1019.7
20260902133555 79 320 2.0 4.0 0.00 0.00 0.00 85 1019.7
20260902133317 80 5 1.0 3.0 0.00 0.00 0.00 85 1020.6
20260902133023 79 300 1.0 3.0 0.00 0.00 0.00 85 1019.7
20260902132524 79 342 1.0 5.0 0.00 0.00 0.00 86 1019.7
20260902132019 79 294 2.0 5.0 0.00 0.00 0.00 85 1019.6
20260902131824 80 340 2.0 3.0 0.00 0.00 0.00 85 1020.6
20260902131519 79 339 1.0 3.0 0.00 0.00 0.00 85 1019.7
20260902131021 79 355 0.0 2.0 0.00 0.00 0.00 86 1019.6
20260902130523 79 345 0.0 3.0 0.00 0.00 0.00 86 1019.5
20260902130317 79 347 0.0 3.0 0.00 0.00 0.00 87 1020.6
20260902130030 78 12 1.0 5.0 0.00 0.00 0.00 86 1019.6
20260902125525 78 351 1.0 5.0 0.00 0.00 0.00 87 1019.6
20260902125025 78 340 2.0 4.0 0.00 0.00 0.00 88 1019.6
20260902124824 78 355 2.0 4.0 0.00 0.00 0.00 89 1020.6
20260902124527 78 311 1.0 4.0 0.00 0.00 0.00 89 1019.6
20260902124025 77 317 2.0 4.0 0.00 0.00 0.00 90 1019.5
20260902123521 76 344 2.0 4.0 0.00 0.00 0.00 91 1019.5
20260902123324 77 326 3.0 4.0 0.00 0.00 0.00 91 1020.5
20260902123027 76 325 1.0 4.0 0.00 0.00 0.00 92 1019.6
20260902122515 75 292 1.0 5.0 0.00 0.00 0.00 92 1019.5
20260902122014 75 327 2.0 5.0 0.00 0.00 0.00 92 1019.6
20260902121822 76 347 3.0 5.0 0.00 0.00 0.00 92 1020.6
20260902121509 75 360 2.0 4.0 0.00 0.00 0.00 92 1019.6
20260902121007 75 335 0.0 0.0 0.00 0.00 0.00 92 1019.6
20260902120506 75 338 0.0 0.0 0.00 0.00 0.00 92 1019.5
20260902120324 75 338 0.0 0.0 0.00 0.00 0.00 92 1020.4
20260902120100 74 338 0.0 0.0 0.00 0.00 0.00 92 1019.5
20260902120001 74 338 0.0 0.0 0.00 0.00 0.00 92 1019.5
20260902115558 74 338 0.0 0.0 0.00 0.00 0.00 92 1019.5
20260902115053 74 338 0.0 0.0 0.00 0.00 0.00 92 1019.5
20260902114823 74 338 0.0 0.0 0.00 0.00 0.00 92 1020.5
20260902114609 74 338 0.0 0.0 0.00 0.00 0.00 92 1019.5
20260902114051 74 338 0.0 0.0 0.00 0.00 0.00 92 1019.4
20260902113554 74 338 0.0 0.0 0.00 0.00 0.00 92 1019.4
20260902113329 74 328 0.0 0.0 0.00 0.00 0.00 92 1020.3
20260902113055 74 328 0.0 0.0 0.00 0.00 0.00 92 1019.3
20260902112557 74 238 0.0 0.0 0.00 0.00 0.00 92 1019.3
20260902112053 74 238 0.0 0.0 0.00 0.00 0.00 92 1019.3
20260902111813 74 238 0.0 0.0 0.00 0.00 0.00 92 1020.2
20260902111551 74 238 0.0 0.0 0.00 0.00 0.00 92 1019.3
20260902111049 74 238 0.0 0.0 0.00 0.00 0.00 92 1019.2
20260902110546 74 238 0.0 0.0 0.00 0.00 0.00 91 1019.1
20260902110316 74 238 0.0 0.0 0.00 0.00 0.00 91 1020.1
20260902110053 74 238 0.0 0.0 0.00 0.00 0.00 91 1019.1
20260902105540 74 238 0.0 0.0 0.00 0.00 0.00 91 1019.1
20260902105042 74 238 0.0 0.0 0.00 0.00 0.00 91 1019.0
20260902104815 74 238 0.0 0.0 0.00 0.00 0.00 91 1020.0
20260902104545 74 238 0.0 0.0 0.00 0.00 0.00 91 1019.0
20260902104047 74 238 0.0 0.0 0.00 0.00 0.00 92 1019.0
20260902103550 74 148 0.0 0.0 0.00 0.00 0.00 91 1019.0
20260902103316 75 148 0.0 0.0 0.00 0.00 0.00 92 1020.0
20260902103102 74 148 0.0 0.0 0.00 0.00 0.00 91 1019.0
20260902102559 74 148 0.0 0.0 0.00 0.00 0.00 91 1019.0
20260902102502 74 148 0.0 0.0 0.00 0.00 0.00 91 1019.0
20260902102005 74 148 0.0 0.0 0.00 0.00 0.00 91 1018.9
20260902101816 75 148 0.0 0.0 0.00 0.00 0.00 91 1019.9
20260902101504 74 148 0.0 0.0 0.00 0.00 0.00 91 1018.9
20260902101002 74 148 0.0 0.0 0.00 0.00 0.00 91 1018.9
20260902100505 74 148 0.0 0.0 0.00 0.00 0.00 91 1018.7
20260902100336 75 148 0.0 0.0 0.00 0.00 0.00 91 1019.7
20260902100039 74 148 0.0 0.0 0.00 0.00 0.00 91 1018.7
20260902095545 74 148 0.0 0.0 0.00 0.00 0.00 91 1018.7
20260902095048 74 148 0.0 0.0 0.00 0.00 0.00 91 1018.7
20260902094813 75 148 0.0 0.0 0.00 0.00 0.00 91 1019.7
20260902094547 74 148 0.0 0.0 0.00 0.00 0.00 91 1018.7
20260902094047 74 148 0.0 0.0 0.00 0.00 0.00 91 1018.6
20260902093553 74 148 0.0 0.0 0.00 0.00 0.00 91 1018.5
20260902093316 75 148 0.0 0.0 0.00 0.00 0.00 91 1019.5
20260902093056 74 148 0.0 0.0 0.00 0.00 0.00 91 1018.5
20260902092603 74 148 0.0 0.0 0.00 0.00 0.00 91 1018.4
20260902092504 74 148 0.0 0.0 0.00 0.00 0.00 91 1018.4
20260902092009 74 148 0.0 0.0 0.00 0.00 0.00 90 1018.3
20260902091816 75 148 0.0 0.0 0.00 0.00 0.00 90 1019.2
20260902091512 75 148 0.0 0.0 0.00 0.00 0.00 91 1018.3
20260902091022 75 148 0.0 0.0 0.00 0.00 0.00 91 1018.2
20260902090523 75 148 0.0 0.0 0.00 0.00 0.00 91 1018.2
20260902090337 75 148 0.0 0.0 0.00 0.00 0.00 91 1019.1
20260902090101 75 148 0.0 0.0 0.00 0.00 0.00 91 1018.2
20260902090005 75 148 0.0 0.0 0.00 0.00 0.00 91 1018.2
20260902085509 75 148 0.0 0.0 0.00 0.00 0.00 91 1018.1
20260902085007 75 148 0.0 0.0 0.00 0.00 0.00 90 1018.0
20260902084817 75 148 0.0 0.0 0.00 0.00 0.00 90 1019.1
20260902084503 75 148 0.0 0.0 0.00 0.00 0.00 90 1018.0
20260902084059 75 148 0.0 0.0 0.00 0.00 0.00 90 1018.1
20260902084001 75 148 0.0 0.0 0.00 0.00 0.00 90 1017.9
20260902083556 75 148 0.0 0.0 0.00 0.00 0.00 90 1017.9
20260902083325 75 148 0.0 0.0 0.00 0.00 0.00 90 1018.9
20260902083053 75 148 0.0 0.0 0.00 0.00 0.00 90 1018.0
20260902082551 75 148 0.0 0.0 0.00 0.00 0.00 90 1018.0
20260902082049 75 148 0.0 0.0 0.00 0.00 0.00 90 1017.9
20260902081830 76 148 0.0 0.0 0.00 0.00 0.00 90 1018.9
20260902081548 75 148 0.0 0.0 0.00 0.00 0.00 90 1017.9
20260902081043 75 148 0.0 0.0 0.00 0.00 0.00 90 1018.1
20260902080537 75 148 0.0 0.0 0.00 0.00 0.00 89 1017.9
20260902080339 76 148 0.0 0.0 0.00 0.00 0.00 89 1018.9
20260902080019 75 148 0.0 0.0 0.00 0.00 0.00 90 1017.9
20260902075510 75 148 0.0 0.0 0.00 0.00 0.00 90 1017.9
20260902075007 75 148 0.0 0.0 0.00 0.00 0.00 90 1017.8
20260902074843 76 148 0.0 0.0 0.00 0.00 0.00 90 1018.7
20260902074550 75 148 0.0 0.0 0.00 0.00 0.00 90 1017.9
20260902074031 76 148 0.0 0.0 0.00 0.00 0.00 89 1017.9
20260902073508 76 148 0.0 0.0 0.00 0.00 0.00 89 1017.9
20260902073330 76 148 0.0 0.0 0.00 0.00 0.00 89 1018.9
20260902073006 76 148 0.0 0.0 0.00 0.00 0.00 89 1017.8
20260902072557 76 148 0.0 0.0 0.00 0.00 0.00 89 1017.8
20260902072055 76 175 0.0 0.0 0.00 0.00 0.00 89 1017.8
20260902071832 76 175 0.0 0.0 0.00 0.00 0.00 89 1018.9
20260902071549 76 175 0.0 0.0 0.00 0.00 0.00 89 1018.0
20260902071041 76 175 0.0 0.0 0.00 0.00 0.00 89 1018.0
20260902070508 76 175 0.0 0.0 0.00 0.00 0.00 89 1018.1
20260902070344 76 175 0.0 0.0 0.00 0.00 0.00 89 1019.0
20260902070047 76 175 0.0 0.0 0.00 0.00 0.00 89 1018.0
20260902065542 76 175 0.0 0.0 0.00 0.00 0.00 88 1018.0
20260902065040 76 175 0.0 0.0 0.00 0.00 0.00 88 1018.1
20260902064814 77 175 0.0 0.0 0.00 0.00 0.00 88 1018.9
20260902064537 76 175 0.0 0.0 0.00 0.00 0.00 88 1018.1
20260902064032 76 175 0.0 0.0 0.00 0.00 0.00 88 1018.2
20260902063529 76 175 0.0 0.0 0.00 0.00 0.00 88 1018.2
20260902063317 77 175 0.0 0.0 0.00 0.00 0.00 88 1019.1
20260902063032 76 175 0.0 0.0 0.00 0.00 0.00 88 1018.1
20260902062532 76 175 0.0 0.0 0.00 0.00 0.00 88 1018.0
20260902062029 76 175 0.0 0.0 0.00 0.00 0.00 88 1018.0
20260902061836 77 175 0.0 0.0 0.00 0.00 0.00 87 1019.0
20260902061508 77 175 0.0 0.0 0.00 0.00 0.00 87 1018.2
20260902061019 77 175 0.0 2.0 0.00 0.00 0.00 87 1018.2
20260902060514 77 195 0.0 2.0 0.00 0.00 0.00 87 1018.3
20260902060317 77 195 0.0 2.0 0.00 0.00 0.00 87 1019.2
20260902060019 77 201 0.0 2.0 0.00 0.00 0.00 87 1018.3
20260902055516 77 201 0.0 1.0 0.00 0.00 0.00 87 1018.3
20260902055019 77 216 0.0 2.0 0.00 0.00 0.00 87 1018.4
20260902054816 77 216 0.0 2.0 0.00 0.00 0.00 87 1019.4
20260902054533 77 216 0.0 2.0 0.00 0.00 0.00 87 1018.5
20260902054032 77 201 0.0 3.0 0.00 0.00 0.00 87 1018.5
20260902053539 77 209 1.0 3.0 0.00 0.00 0.00 87 1018.6
20260902053318 77 196 0.0 2.0 0.00 0.00 0.00 87 1019.5
20260902053038 77 181 0.0 2.0 0.00 0.00 0.00 87 1018.6
20260902052538 77 181 0.0 2.0 0.00 0.00 0.00 87 1018.7
20260902052028 77 202 0.0 2.0 0.00 0.00 0.00 86 1018.7
20260902051823 78 202 0.0 2.0 0.00 0.00 0.00 86 1019.6
20260902051526 77 202 0.0 2.0 0.00 0.00 0.00 86 1018.6
20260902051022 77 150 0.0 3.0 0.00 0.00 0.00 86 1018.6
20260902050523 77 225 0.0 3.0 0.00 0.00 0.00 86 1018.5
20260902050329 78 225 1.0 3.0 0.00 0.00 0.00 86 1019.5
20260902050022 77 200 0.0 2.0 0.00 0.00 0.00 86 1018.5
20260902045508 77 200 0.0 3.0 0.00 0.00 0.00 86 1018.6
20260902045006 78 178 0.0 3.0 0.00 0.00 0.00 86 1018.6
20260902044820 78 190 1.0 3.0 0.00 0.00 0.00 86 1019.5
20260902044600 78 196 0.0 3.0 0.00 0.00 0.00 86 1018.6
20260902044502 78 219 0.0 3.0 0.00 0.00 0.00 86 1018.6
20260902044057 78 217 1.0 3.0 0.00 0.00 0.00 86 1018.7
20260902043552 78 209 0.0 3.0 0.00 0.00 0.00 86 1018.6
20260902043326 78 128 0.0 3.0 0.00 0.00 0.00 85 1019.6
20260902043053 78 141 0.0 3.0 0.00 0.00 0.00 85 1018.7
20260902042547 78 129 0.0 2.0 0.00 0.00 0.00 85 1018.6
20260902042038 78 128 0.0 1.0 0.00 0.00 0.00 85 1018.6
20260902041851 78 150 0.0 1.0 0.00 0.00 0.00 85 1019.5
20260902041512 78 145 0.0 3.0 0.00 0.00 0.00 85 1018.6
20260902041010 78 178 0.0 3.0 0.00 0.00 0.00 85 1018.5
20260902040504 78 197 0.0 3.0 0.00 0.00 0.00 84 1018.6
20260902040337 79 188 0.0 3.0 0.00 0.00 0.00 84 1019.5
20260902040054 78 215 0.0 3.0 0.00 0.00 0.00 84 1018.7
20260902035556 78 188 0.0 3.0 0.00 0.00 0.00 84 1018.7
20260902035010 78 172 0.0 3.0 0.00 0.00 0.00 84 1018.7
20260902034816 79 136 1.0 3.0 0.00 0.00 0.00 84 1019.6
20260902034510 79 132 0.0 3.0 0.00 0.00 0.00 84 1018.7
20260902034012 79 171 0.0 4.0 0.00 0.00 0.00 83 1018.7
20260902033516 79 177 0.0 4.0 0.00 0.00 0.00 83 1018.8
20260902033323 79 192 1.0 4.0 0.00 0.00 0.00 83 1019.8
20260902033020 79 210 0.0 3.0 0.00 0.00 0.00 83 1018.8
20260902032522 79 168 1.0 3.0 0.00 0.00 0.00 82 1018.7
20260902032020 79 167 0.0 3.0 0.00 0.00 0.00 82 1018.7
20260902031825 80 207 1.0 3.0 0.00 0.00 0.00 82 1019.6
20260902031514 79 206 0.0 2.0 0.00 0.00 0.00 82 1018.8
20260902031011 79 183 0.0 3.0 0.00 0.00 0.00 82 1018.8
20260902030508 80 207 0.0 3.0 0.00 0.00 0.00 81 1018.8
20260902030332 80 166 0.0 4.0 0.00 0.00 0.00 81 1019.7
20260902030006 80 217 0.0 4.0 0.00 0.00 0.00 81 1018.7
20260902025558 80 153 1.0 4.0 0.00 0.00 0.00 81 1018.7
20260902025056 80 114 0.0 3.0 0.00 0.00 0.00 80 1018.7
20260902024820 81 150 0.0 4.0 0.00 0.00 0.00 80 1019.6
20260902024555 80 131 0.0 4.0 0.00 0.00 0.00 80 1018.7
20260902024052 80 162 1.0 4.0 0.00 0.00 0.00 80 1018.6
20260902023551 80 166 0.0 4.0 0.00 0.00 0.00 79 1018.6
20260902023332 81 117 1.0 3.0 0.00 0.00 0.00 79 1019.4
20260902023048 81 164 1.0 3.0 0.00 0.00 0.00 79 1018.4
20260902022543 81 121 1.0 4.0 0.00 0.00 0.00 78 1018.4
20260902022042 81 187 1.0 7.0 0.00 0.00 0.00 78 1018.4
20260902021824 81 185 1.0 7.0 0.00 0.00 0.00 78 1019.3
20260902021540 81 161 2.0 7.0 0.00 0.00 0.00 78 1018.4
20260902021026 81 161 1.0 4.0 0.00 0.00 0.00 77 1018.4
20260902020525 81 138 2.0 7.0 0.00 0.00 0.00 77 1018.2
20260902020316 81 134 2.0 7.0 0.00 0.00 0.00 76 1019.1
20260902020020 81 170 1.0 7.0 0.00 0.00 0.00 76 1018.2
20260902015516 81 111 2.0 5.0 0.00 0.00 0.00 75 1018.1
20260902015013 81 126 1.0 3.0 0.00 0.00 0.00 75 1017.9
20260902014845 82 139 1.0 3.0 0.00 0.00 0.00 76 1018.8
20260902014551 81 101 0.0 2.0 0.00 0.00 0.00 76 1017.7
20260902014045 81 101 0.0 0.0 0.00 0.00 0.00 75 1017.7
20260902013538 82 101 0.0 0.0 0.00 0.00 0.00 75 1017.7
20260902013318 82 101 0.0 0.0 0.00 0.00 0.00 74 1018.6
20260902013030 82 101 0.0 0.0 0.00 0.00 0.00 74 1017.5
20260902012526 82 101 0.0 0.0 0.00 0.00 0.00 74 1017.5
20260902012024 82 101 0.0 0.0 0.00 0.00 0.00 73 1017.6
20260902011829 83 101 0.0 0.0 0.00 0.00 0.00 73 1018.4
20260902011520 82 101 0.0 0.0 0.00 0.00 0.00 74 1017.4
20260902011021 83 101 0.0 0.0 0.00 0.00 0.00 73 1017.4
20260902010516 83 101 0.0 0.0 0.00 0.00 0.00 72 1017.3
20260902010322 83 101 0.0 0.0 0.00 0.00 0.00 72 1018.2
20260902010012 83 101 0.0 0.0 0.00 0.00 0.00 72 1017.2
20260902005511 83 101 0.0 0.0 0.00 0.00 0.00 71 1017.2
20260902005004 84 101 0.0 0.0 0.00 0.00 0.00 71 1017.2
20260902004834 84 101 0.0 0.0 0.00 0.00 0.00 70 1018.1
20260902004540 84 101 0.0 0.0 0.00 0.00 0.00 70 1017.2
20260902004036 84 101 0.0 0.0 0.00 0.00 0.00 70 1017.2
20260902003526 85 101 0.0 0.0 0.00 0.00 0.00 69 1017.2
20260902003319 85 101 0.0 0.0 0.00 0.00 0.00 69 1018.2
20260902003022 85 101 0.0 0.0 0.00 0.00 0.00 68 1017.2
20260902002518 86 101 0.0 0.0 0.00 0.00 0.00 68 1017.1
20260902002019 86 101 0.0 0.0 0.00 0.00 0.00 66 1017.0
20260902001826 87 101 0.0 0.0 0.00 0.00 0.00 66 1018.0
20260902001512 87 101 0.0 0.0 0.00 0.00 0.00 66 1017.1
20260902001009 87 101 0.0 0.0 0.00 0.00 0.00 66 1017.2